www.pogodaiklimat.ru

Погода и климат >> Архив погоды >> Россия >> Эвенкия >> Кислокан


ПОГОДА в Кислокане

  • Прогноз погоды в Кислокане
  • Монитор погоды в Кислокане
  • Климат города

АРХИВ ПОГОДЫ в Кислокане

Время (UTC), дата Ветер
(напр.,м/с)
 
Видим.   Явления Облачность Т
(С)
Тd
(С)
f
(%)
Тe
(С)
Тes
(С)
Комфортность P
(гПа)
Po
(гПа)
Тmin
(С)
Tmax
(С)
R
(мм)
R24
(мм)
S
(см)
15 15.02 штиль 0 н/о {снег} ясно -35.7 -38.7 74 -36 -36 опасность
обморожения
1027.2 996.6
18 15.02 штиль 0 н/о {снег} ясно -36.6 -39.4 75 -37 -37 опасность
обморожения
1026.7 996.0
21 15.02 штиль 0 н/о слабый снег 10/0 2000 м
[Ac trans Cs]
-37.6 -40.5 74 -38 -38 опасность
обморожения
1026.4 995.5
00 16.02 штиль 0 н/о слабый снег 10/0 2000 м
[Ac lent Cs]
-37.6 -40.5 74 -38 -38 опасность
обморожения
1025.7 994.8 -38.2 0.0 46
03 16.02 ЮЗ 1 50 км {снег} 4/0 2000 м
[Ac trans Ci sp]
-35.4 -39.0 69 -40 -39 опасность
обморожения
1025.4 994.9 -39.3
06 16.02 штиль 0 50 км в посл. час снег 10/0
[Cs]
-28.6 -33.2 64 -29 -27 1023.9 994.2
09 16.02 З 1 50 км {снег} 10/3 1000 м
[Sc Ci sp]
-27.1 -30.9 70 -31 -31 опасность
обморожения
1023.9 994.4
12 16.02 штиль 0 н/о слабый снег 10/0
[Cs]
-34.2 -37.1 75 -34 -34 опасность
обморожения
1025.4 995.1 -25.9 0.3
15 16.02 штиль 0 н/о слабый снег 10/0
[Cs]
-36.6 -39.4 75 -37 -37 опасность
обморожения
1026.1 995.4
18 16.02 штиль 0 н/о {снег} ясно -39.0 -42.5 69 -39 -39 опасность
обморожения
1026.9 995.9
21 16.02 штиль 0 н/о 3/0 2000 м
[Ac lent]
-38.6 -42.0 70 -39 -39 опасность
обморожения
1027.5 996.5
00 17.02 штиль 0 н/о 3/0 2000 м
[Ac lent]
-39.5 -42.9 70 -40 -40 опасность
обморожения
1028.5 997.4 -39.5 0.0 46
03 17.02 штиль 0 50 км 4/0
[Ci fib]
-36.2 -39.0 75 -36 -35 опасность
обморожения
1029.1 998.3 -39.8
06 17.02 ЮЗ 1 50 км 6/0
[Ci fib]
-26.9 -31.5 65 -31 -29 опасность
обморожения
1027.9 998.3
09 17.02 С 1 50 км 3/0
[Ci fib]
-23.7 -28.5 65 -27 -27 1027.9 998.6
12 17.02 штиль 0 н/о ясно -34.8 -37.7 75 -35 -35 опасность
обморожения
1029.4 998.8 -23.5
15 17.02 штиль 0 н/о ясно -36.8 -39.8 74 -37 -37 опасность
обморожения
1029.9 999.0
18 17.02 штиль 0 н/о ясно -38.7 -42.0 71 -39 -39 опасность
обморожения
1030.2 999.0
21 17.02 штиль 0 н/о ясно -39.7 -42.9 71 -40 -40 опасность
обморожения
1030.4 999.1
00 18.02 штиль 0 н/о 10/0 2000 м
[Ac trans Ci fib]
-39.6 -42.3 75 -40 -40 опасность
обморожения
1030.9 999.6 -40.0 46
03 18.02 штиль 0 4000 м слабый снег 10/0 2000 м
[Ac trans Cs]
-35.6 -39.0 71 -36 -35 опасность
обморожения
1030.1 999.3
06 18.02 ЮЗ 1 4000 м слабый снег 10/0 2000 м
[Ac trans Cs]
-28.6 -33.2 64 -33 -31 опасность
обморожения
1028.2 998.3
09 18.02 З 1 50 км в посл. час снег 10/0 2000 м
[Ac trans Cs]
-26.1 -30.8 65 -30 -30 1027.9 998.4
12 18.02 штиль 0 н/о слабый снег 10/0 2000 м
[Ac trans Cs]
-29.9 -33.0 74 -30 -30 1028.4 998.4 -26.1 0.3
15 18.02 штиль 0 н/о слабый снег 10/0 2000 м
[Ac trans Cs]
-34.2 -37.1 75 -34 -34 опасность
обморожения
1028.6 998.1
18 18.02 штиль 0 н/о {снег} ясно -37.9 -40.9 73 -38 -38 опасность
обморожения
1028.3 997.4
21 18.02 штиль 0 н/о ясно -39.5 -42.9 70 -40 -40 опасность
обморожения
1028.4 997.3
00 19.02 штиль 0 н/о 5/0 2000 м
[Ac lent Ci fib]
-39.1 -42.5 70 -39 -39 опасность
обморожения
1027.5 996.5 -39.6 0.0 46
03 19.02 ЮЗ 1 50 км 3/0 2000 м
[Ac lent Ci fib]
-34.6 -38.1 70 -39 -38 опасность
обморожения
1027.1 996.6
06 19.02 З 1 50 км 3/0 2000 м
[Ci fib]
-28.6 -33.2 64 -33 -31 опасность
обморожения
1025.2 995.5
09 19.02 З 1 50 км 9/0
[Ci sp]
-25.1 -29.8 65 -29 -29 1024.2 995.0
12 19.02 штиль 0 н/о слабый снег 10/0 2000 м
[Ac trans Cs]
-34.0 -37.5 70 -34 -34 опасность
обморожения
1025.2 994.9 -24.4 0.0
15 19.02 штиль 0 н/о слабый снег 10/0 2000 м
[Ac trans Cs]
-33.0 -36.0 74 -33 -33 опасность
обморожения
1024.4 994.2
18 19.02 штиль 0 н/о 10/0 2000 м
[Ac trans Cs]
-33.0 -36.0 74 -33 -33 опасность
обморожения
1023.4 993.2
21 19.02 штиль 0 н/о слабый снег 10/0 2000 м
[Ac trans Cs]
-32.3 -35.3 74 -32 -32 опасность
обморожения
1022.7 992.6
00 20.02 штиль 0 н/о слабый снег 10/0 2000 м
[Ac trans Cs]
-31.6 -34.5 75 -32 -32 опасность
обморожения
1021.7 991.8 -34.7 0.6 46
03 20.02 З 1 4000 м слабый снег 10/0
[Cs]
-29.0 -32.8 70 -33 -32 опасность
обморожения
1021.8 992.2
06 20.02 штиль 0 4000 м слабый снег 10/0
[Cs]
-24.0 -28.0 69 -24 -22 1021.2 992.2
09 20.02 С 1 4000 м слабый снег 10/0 2000 м
[Ac trans Cs]
-23.3 -27.3 70 -27 -27 1022.2 993.2
12 20.02 штиль 0 н/о слабый снег 10/0
[Cs]
-29.4 -32.4 75 -29 -29 1024.0 994.3 -22.6 0.4
15 20.02 штиль 0 н/о {снег} ясно -35.1 -38.0 75 -35 -35 опасность
обморожения
1025.0 994.5
18 20.02 штиль 0 н/о {снег} ясно -37.2 -40.1 74 -37 -37 опасность
обморожения
1026.1 995.4
21 20.02 штиль 0 н/о ясно -39.2 -42.5 71 -39 -39 опасность
обморожения
1026.5 995.5
00 21.02 штиль 0 н/о ясно -41.5 -45.0 69 -42 -42 опасность
обморожения
1027.6 996.2 -41.5 0.0 46
03 21.02 ЮЗ 1 50 км ясно -36.2 -39.7 70 -41 -40 опасность
обморожения
1027.0 996.4 -42.0
06 21.02 С 1 50 км ясно -26.9 -30.7 70 -31 -29 опасность
обморожения
1025.1 995.6
09 21.02 С 1 50 км ясно -24.7 -29.4 65 -28 -28 1024.2 995.0
12 21.02 штиль 0 н/о ясно -27.2 -37.7 36 -27 -27 1024.7 994.2 -24.2
15 21.02 штиль 0 н/о слабый снег 10/0 2000 м
[Ac trans Cs]
-31.5 -34.5 75 -32 -32 опасность
обморожения
1022.8 992.7
18 21.02 штиль 0 н/о {снег} ясно -34.7 -37.7 74 -35 -35 опасность
обморожения
1021.8 991.5
21 21.02 штиль 0 н/о ясно -36.7 -39.4 76 -37 -37 опасность
обморожения
1021.5 990.9
00 22.02 штиль 0 н/о слабый снег 10/0 2000 м
[Ac trans Cs]
-32.9 -35.8 75 -33 -33 опасность
обморожения
1020.9 990.8 -37.4 0.0 46
03 22.02 СЗ 1 4000 м слабый снег 10/0 2000 м
[Ac trans Cs]
-29.9 -33.0 74 -34 -33 опасность
обморожения
1019.9 990.2
06 22.02 ЮЗ 1 4000 м слабый снег 10/0 2000 м
[Ac trans Cs]
-22.6 -25.8 75 -26 -25 1018.4 989.6
09 22.02 СВ 1 4000 м слабый снег 10/0 2000 м
[Ac trans Cs]
-19.6 -22.9 75 -23 -23 1018.1 989.6
12 22.02 С 1 н/о слабый снег 10/0 2000 м
[Ac trans Cs]
-27.9 -31.0 75 -32 -32 опасность
обморожения
1019.5 990.1 -19.4 0.3

 

Местоположение метеостанции Кислокан (Эвенкия, Россия): широта 63.58 долгота 103.90 высота над уровнем моря 211 м.

В архиве по умолчанию представлена погода в Кислокане за последнюю неделю. Архивные данные за месяц целиком и за предыдущие месяцы, начиная с января 2011 года, Вы можете получить, выбрав интересующий диапазон дат из раскрывающегося списка и нажав кнопку "Ввод!".

Внимание! Время в таблицах - всемирное. Для получения местного времени необходимо прибавить поправку, которая в Кислокане равна 7 ч.

Смотрите также архив погоды в соседних городах и на ближайших метеорологических станциях:

Погода в Кербо (Эвенкия, Россия) (170 км)
Погода в Туре (Эвенкия, Россия) (190 км)
Погода в Стрелке-Чуне (Эвенкия, Россия) (211 км)
Погода в Тембенчи (Эвенкия, Россия) (285 км)
Погода в Муторае (Эвенкия, Россия) (308 км)
Погода в Ербогачене (Иркутская область, Россия) (332 км)
Погода в Ванаваре (Эвенкия, Россия) (371 км)
Погода в Туой-Хае (Якутия, Россия) (386 км)
Погода в Чернышевском (Якутия, Россия) (429 км)
Погода в Хабардино (Якутия, Россия) (433 км)

Пояснения к столбцам:

Ветер - указаны скорость ветра в м/с - средняя за 10 мин, порывы в срок и между сроками (в фигурных скобках) и направление, откуда дует ветер: С - северный, СВ - северо-восточный, В - восточный, ЮВ - юго-восточный, Ю - южный, ЮЗ - юго-западный, З - западный, СЗ - северо-западный.
Видимость - горизонтальная дальность видимости в метрах или километрах. При видимости от 1 до 10 км при отсутствии осадков обычно наблюдается дымка, при ухудшении видимости до 1 км и менее - туман. В сухую погоду видимость может ухудшаться дымом, пылью или мглою.
Явления - указаны атмосферные явления, наблюдавшиеся в срок или в последний час перед сроком; фигурными скобками обозначены явления, наблюдавшиеся между сроками (за 1-3 часа до срока); квадратными скобками обозначены град или гололедные отложения с указанием их диаметра в мм.
Облачность - указаны через наклонную черту общая и нижняя облачность в баллах и высота нижней границы облаков в метрах; квадратными скобками обозначены формы облаков: Ci - перистые, Cs - перисто-слоистые, Cc - перисто-кучевые, Ac - высококучевые, As - высокослоистые, Sc - слоисто-кучевые, Ns - слоисто-дождевые, Cu - кучевые, Cb - кучево-дождевые. Подробнее классификацию облаков см. в Атласе облаков (PDF).
T - Температура воздуха - температура, измеренная на высоте 2 м над землей.
Td - Температура точки росы - температура, при понижении до которой содержащийся в воздухе водяной пар достигнет насыщения.
f - Относительная влажность воздуха - влажноcть воздуха, измеренная на высоте 2 м над землей.
Te - Эффективная температура - температура, которую ощущает одетый по сезону человек в тени. Характеристика душности погоды. При расчете учитывается влияние влажности воздуха и скорости ветра на теплоощущения человека.
Tes - Эффективная температура на солнце - температура, которую ощущает человек, с поправкой на солнечный нагрев. Характеристика знойности погоды. Зависит от высоты солнца над горизонтом, облачности и скорости ветра. Ночью, в пасмурную погоду, а также при ветре 12 м/с и более поправка равна нулю.
P - Атмосферное давление - приведенное к уровню моря атмосферное давление.
Po - Атмосферное давление - измеренное на уровне метеостанции атмосферное давление.
Tmin - Минимальная температура - минимум температуры воздуха на высоте 2 м над землей.
Tmax - Максимальная температура - максимум температуры воздуха на высоте 2 м над землей.
R - Количество осадков - Количество выпавших осадков за период времени, мм. При наведении курсора мыши на число - период времени, за который выпало указанное количество осадков.
R24 - Количество осадков - Количество выпавших осадков за 24 часа, мм.
S - Снежный покров - Высота снежного покрова, см. При наведении курсора мыши на число - состояние снежного покрова и степень покрытия местности в баллах.